{"data":{"norad_id":66417,"intl_designator":"2025-258F","name":"HULIANWANG DIGUI-101","alt_names":[],"object_type":"PAYLOAD","status":"ACTIVE","operator":null,"country":"PRC","launch_date":"2025-11-10","launch_site_code":"WSC","launch_vehicle":null,"mission":null,"orbit_class":"UNKNOWN","rcs_meters":null,"size_class":null,"mass_kg":null,"dimensions":null,"purposes":[],"wikipedia_slug":null,"has_3d_model":false,"image_url":null,"decayed_at":null,"tle_current":{"epoch":"2026-09-20T09:22:56.221536Z","epoch_age_seconds":137418,"freshness":"FRESH","line1":"1 66417U 25258F   26263.39092849 -.00000086  00000+0  82421-4 0  9994","line2":"2 66417  50.0012 314.1466 0000128 230.5889 129.4972 13.29328258 42402","mean_motion":13.29328258,"eccentricity":1.28e-5,"inclination_deg":50.0012,"raan_deg":314.1466,"arg_perigee_deg":230.5889,"mean_anomaly_deg":129.4972,"bstar":8.2421e-5,"rev_number":4240,"period_min":108.32538850611,"perigee_km":1149.2016965943,"apogee_km":1149.3943989315,"semimajor_km":7527.4350477629,"source":"CELESTRAK","updated_at":"2026-09-21T09:00:15.963968Z"}}}